User: anonymous   Login
Location: Ostrava
(49.8330°N, 18.2830°E)
Time: 23:13:40
(UTC+01:00)
Language:

NOAA 19 - Orbit

View from above orbital plane
View from above orbital plane
View from above satellite
View from above satellite

Ground track
Ground track

The orbit data is extracted from the following two-line orbital elements,

1 33591U 09005A   15087.09724143  .00000319  00000-0  19885-3 0  9993
2 33591 098.9819 036.8183 0014837 041.8601 318.3702 14.11899080316048
Epoch (UTC): 28 March 2015 02:20:01
Eccentricity: 0.0014837
inclination: 98.9819°
perigee height: 842 km
apogee height: 863 km
right ascension of ascending node: 36.8183°
argument of perigee: 41.8601°
revolutions per day: 14.11899080
mean anomaly at epoch: 318.3702°
orbit number at epoch: 31604

The dashed part of the orbit path shows where the satellite is in the earth's shadow,  

DLR